Weather Roundup
Issued by NWS Corpus Christi, TX

Home | Current Version | Previous Version | Text Only | Print | Product List | Glossary On
Versions: 1 2 3 4 5 6 7 8 9 10 11 12 13 14 15 16 17 18 19 20 21 22 23 24 25 26 27 28 29 30 31 32 33 34 35 36 37 38 39 40 41 42 43 44 45 46 47 48 49 50
000
ASUS44 KCRP 120510
HRRCRP

SOUTH TEXAS REGIONAL WEATHER ROUNDUP
NATIONAL WEATHER SERVICE CORPUS CHRISTI TX
1100 PM CST MON DEC 11 2017


TXZ229>244-120600-
...CORPUS CHRISTI AREA OBSERVATIONS...

CITY           SKY/WX    TMP DP  RH WIND       PRES   REMARKS
CORPUS CHRISTI CLOUDY    54  49  83 SW5       30.24R
NAS CORPUS CHR CLOUDY    58  48  69 SW8       30.24R
ROCKPORT       CLOUDY    58  46  64 SW5       30.23R
KINGSVILLE ARP FAIR      53  49  85 CALM      30.26R
KINGSVILLE NAS CLOUDY    56  43  61 SW8       30.25R
ALICE          CLOUDY    55  42  61 W5        30.24F
$$

...VICTORIA AREA OBSERVATIONS...

CITY           SKY/WX    TMP DP  RH WIND       PRES   REMARKS
PORT LAVACA    CLEAR     49  46  88 SW6       30.23S
VICTORIA       PTCLDY    49  37  63 SW8       30.23R
BEEVILLE       FAIR      56  40  56 W7        30.24S
PLEASANTON     PTCLDY    51  38  61 NW3       30.25S
SAN ANTONIO    PTCLDY    50  37  61 W3        30.25R
$$

...LAREDO AREA OBSERVATIONS...

CITY           SKY/WX    TMP DP  RH WIND       PRES   REMARKS
LAREDO           N/A    N/A N/A N/A MISG        N/A
COTULLA        CLOUDY    50  43  77 N3        30.26R
DEL RIO        CLOUDY    42  40  92 CALM      30.27R
MCALLEN        CLOUDY    55  48  77 CALM      30.27S
HEBBRONVILLE   MOCLDY    53  35  50 W5        30.25F
$$

...OTHER TEXAS OBSERVATIONS...

CITY           SKY/WX    TMP DP  RH WIND       PRES   REMARKS
BROWNSVILLE    CLEAR     51  48  89 CALM      30.27S
HOUSTON        MOCLDY    56  41  57 SW6       30.18F
COL. STATION   PTCLDY    50  37  61 SW6       30.19S
AUSTIN         CLOUDY    52  37  56 W6        30.21S
WACO           CLEAR     47  30  51 N3        30.19R
FORT WORTH     PTCLDY    54  21  27 N8        30.20R
WICHITA FALLS  CLEAR     46  19  34 N15       30.29R
LUBBOCK        CLOUDY    38  10  31 N10       30.37R WCI  31
EL PASO        MOCLDY    42  27  55 CALM      30.35R
$$

...MARINE OBSERVATIONS...

STATION/POSITION TIME  SKY/WX   TEMP    WIND        PRES    VSBY  WAVE   SWELL
                                AIR SEA DIR/SP/G                  HT/PER HT/PER
                 (UTC)          (F)     (DEG/KT/KT) (MB)    (MI)  (FT/S) (FT/S)
PORT ARANSAS     NOT AVBL
BUOY 90 E PORT A 0450            69 72  270/ 12/ 14 1023.0F         1/ 3
BUOY 200 E PT IS 0450            69 77  270/  4/  6 1023.7F         1
BUOY 15 E GALVES 0350            62 61  260/ 14/ 14 1022.5          2/ 4
$$




USA.gov is the U.S. government's official web portal to all federal, state and local government web resources and services.